Weather in Matsuyama

Japan     36°02′35″N   139°24′09″E
temp.,
°C
wind,
m/s
gust,
m/s
humid.,
%
clouds,
%
prec.,
mm/h
press.,
hPa
HPBL,
m
15 june, tue
tue1500:00+22wnw11715 0.0 1007367
03:00+22nnw11751 0.1 1006304
06:00+22nnw227713 0.1 1007444
09:00+25n115955 0.1 10061108
12:00+30ese223835 0.0 10052031
15:00+28sse544578 0.1 10051532
18:00+27sse6648100 0.2 10051493
21:00+25s3456100 0.9 1007809
16 june, wed
wed1600:00+24s3361100 0.1 1007932
03:00+23sse2266100 0.2 1006771
06:00+23se2371100 0.4 1007630
09:00+24sse4566100 3.6 1007978
12:00+23se3471100 3.7 1007516
15:00+22e2376100 7.4 1007215
18:00+20e3491100 17.0 1007369
21:00+19e4691100 30.0 1008404
17 june, thu
thu1700:00+19nne3684100 3.9 1007323
03:00+19nne4683100 5.8 1006338
06:00+19nnw3781100 0.6 1007533
09:00+20n4674100 1.4 1007734
12:00+19ne2578100 2.2 1007492
15:00+20ne246760 2.4 1006659
18:00+21nne126590 0.0 1006462
21:00+20nne23725 0.0 1006223
18 june, fri
fri1800:00+19nw12750 0.0 100681
03:00+19nne117850 0.0 100585
06:00+19n11740 0.0 1005331
09:00+23se11560 0.0 1005913
12:00+27sse32410 0.0 10031583
15:00+29sse543699 0.0 10012069
18:00+25s7853100 0.0 10021216
21:00+23sse5667100 0.0 10041067
19 june, sat
sat1900:00+22se5774100 0.6 1002859
03:00+21sse3678100 2.1 1001724
06:00+21se3579100 0.8 1001587
09:00+21se3581100 1.9 1001574
12:00+21s6879100 1.7 1001790
15:00+21sse5879100 3.9 1001774
18:00+21se4775100 0.2 1001655
21:00+21sse257985 0.4 1002431